Time,TemperatureF,DewpointF,PressureIn,WindDirection,WindDirectionDegrees,WindSpeedMPH,WindSpeedGustMPH,Humidity,HourlyPrecipIn,Conditions,Clouds,dailyrainin,SoftwareType,DateUTC
2013-11-19 00:12:00,42.0,32.0,29.62,North,11,6.0,14.0,67,0.00,,,0.44,,2013-11-19 05:12:00,
2013-11-19 00:23:00,41.0,31.0,29.62,WNW,286,6.0,12.0,68,0.00,,,0.42,,2013-11-19 05:23:00,
2013-11-19 00:43:00,41.0,31.0,29.62,NW,307,5.0,19.0,68,0.00,,,0.42,,2013-11-19 05:43:00,
2013-11-19 00:53:00,40.0,30.0,29.62,WSW,246,5.0,20.0,67,0.00,,,0.42,,2013-11-19 05:53:00,
2013-11-19 01:22:00,40.0,29.0,29.63,West,277,8.0,21.0,64,0.00,,,0.41,,2013-11-19 06:22:00,
2013-11-19 01:42:00,39.0,28.0,29.63,SW,225,7.0,21.0,64,0.00,,,0.41,,2013-11-19 06:42:00,
2013-11-19 01:52:00,39.0,27.0,29.63,WNW,292,7.0,18.0,63,0.00,,,0.41,,2013-11-19 06:52:00,
2013-11-19 02:12:00,38.0,26.0,29.63,North,8,12.0,21.0,62,0.00,,,0.41,,2013-11-19 07:12:00,
2013-11-19 02:22:00,38.0,26.0,29.63,WNW,289,11.0,23.0,61,0.00,,,0.40,,2013-11-19 07:22:00,
2013-11-19 02:42:00,37.0,25.0,29.65,NW,310,7.0,19.0,62,0.00,,,0.40,,2013-11-19 07:42:00,
2013-11-19 02:52:00,37.0,25.0,29.64,NNE,19,11.0,21.0,62,0.00,,,0.40,,2013-11-19 07:52:00,
2013-11-19 03:11:00,37.0,26.0,29.64,North,360,8.0,19.0,64,0.00,,,0.40,,2013-11-19 08:11:00,
2013-11-19 03:22:00,37.0,27.0,29.65,West,266,5.0,18.0,68,0.00,,,0.39,,2013-11-19 08:22:00,
2013-11-19 03:42:00,36.0,28.0,29.65,NW,310,6.0,17.0,71,0.00,,,0.39,,2013-11-19 08:42:00,
2013-11-19 03:52:00,36.0,28.0,29.66,WSW,239,7.0,13.0,73,0.00,,,0.39,,2013-11-19 08:52:00,
2013-11-19 04:11:00,35.0,28.0,29.67,West,270,5.0,17.0,76,0.00,,,0.39,,2013-11-19 09:11:00,
2013-11-19 04:22:00,34.0,28.0,29.69,West,260,7.0,22.0,79,0.00,,,0.38,,2013-11-19 09:22:00,
2013-11-19 04:43:00,34.0,28.0,29.69,West,275,6.0,18.0,80,0.00,,,0.38,,2013-11-19 09:43:00,
2013-11-19 04:53:00,33.0,28.0,29.69,West,274,6.0,13.0,83,0.00,,,0.38,,2013-11-19 09:53:00,
2013-11-19 05:13:00,33.0,28.0,29.70,WNW,286,7.0,18.0,82,0.00,,,0.38,,2013-11-19 10:13:00,
2013-11-19 05:23:00,33.0,28.0,29.70,NW,310,5.0,16.0,82,0.00,,,0.28,,2013-11-19 10:23:00,
2013-11-19 05:43:00,32.0,27.0,29.72,West,278,7.0,13.0,82,0.00,,,0.28,,2013-11-19 10:43:00,
2013-11-19 05:53:00,33.0,26.0,29.72,West,269,7.0,14.0,75,0.00,,,0.28,,2013-11-19 10:53:00,
2013-11-19 06:13:00,33.0,24.0,29.73,NW,306,6.0,17.0,70,0.00,,,0.28,,2013-11-19 11:13:00,
2013-11-19 06:23:00,33.0,23.0,29.75,West,270,6.0,14.0,67,0.00,,,0.21,,2013-11-19 11:23:00,
2013-11-19 06:42:00,32.0,24.0,29.76,NNE,15,13.0,31.0,72,0.00,,,0.21,,2013-11-19 11:42:00,
2013-11-19 06:52:00,30.0,24.0,29.78,NNE,21,8.0,18.0,77,0.00,,,0.21,,2013-11-19 11:52:00,
2013-11-19 07:12:00,30.0,23.0,29.79,WSW,258,9.0,17.0,74,0.00,,,0.21,,2013-11-19 12:12:00,
2013-11-19 07:22:00,30.0,21.0,29.79,NNW,330,11.0,21.0,70,0.00,,,0.04,,2013-11-19 12:22:00,
2013-11-19 07:42:00,30.0,21.0,29.81,WNW,294,6.0,18.0,70,0.00,,,0.04,,2013-11-19 12:42:00,
2013-11-19 07:52:00,30.0,21.0,29.82,WNW,301,6.0,15.0,70,0.00,,,0.04,,2013-11-19 12:52:00,
2013-11-19 08:11:00,30.0,20.0,29.83,WNW,303,7.0,16.0,67,0.00,,,0.04,,2013-11-19 13:11:00,
2013-11-19 08:42:00,30.0,18.0,29.85,NNW,337,9.0,21.0,61,0.00,,,0.00,,2013-11-19 13:42:00,
2013-11-19 08:52:00,29.0,17.0,29.88,North,358,6.0,17.0,61,0.00,,,0.00,,2013-11-19 13:52:00,
2013-11-19 09:11:00,30.0,18.0,29.86,NW,306,10.0,19.0,60,0.00,,,0.00,,2013-11-19 14:11:00,
2013-11-19 09:22:00,30.0,18.0,29.87,NNW,330,8.0,20.0,60,0.00,,,0.00,,2013-11-19 14:22:00,
2013-11-19 09:42:00,30.0,17.0,29.88,NE,36,11.0,21.0,59,0.00,,,0.00,,2013-11-19 14:42:00,
2013-11-19 09:52:00,30.0,17.0,29.89,NW,312,11.0,21.0,59,0.00,,,0.00,,2013-11-19 14:52:00,
2013-11-19 10:11:00,30.0,17.0,29.89,WNW,291,11.0,30.0,59,0.00,,,0.00,,2013-11-19 15:11:00,
2013-11-19 10:22:00,30.0,17.0,29.89,NNW,329,9.0,16.0,59,0.00,,,0.00,,2013-11-19 15:22:00,
2013-11-19 10:43:00,30.0,17.0,29.89,North,355,10.0,21.0,59,0.00,,,0.00,,2013-11-19 15:43:00,
2013-11-19 10:54:00,30.0,18.0,29.89,NW,317,8.0,21.0,60,0.00,,,0.00,,2013-11-19 15:54:00,
2013-11-19 11:13:00,30.0,17.0,29.91,SW,231,9.0,27.0,59,0.00,,,0.00,,2013-11-19 16:13:00,
2013-11-19 11:23:00,31.0,18.0,29.91,NW,315,10.0,17.0,59,0.00,,,0.00,,2013-11-19 16:23:00,
2013-11-19 11:43:00,31.0,18.0,29.91,WNW,296,11.0,21.0,59,0.00,,,0.00,,2013-11-19 16:43:00,
2013-11-19 11:53:00,31.0,18.0,29.92,WNW,284,9.0,21.0,59,0.00,,,0.00,,2013-11-19 16:53:00,
2013-11-19 12:12:00,31.0,18.0,29.92,West,260,9.0,19.0,59,0.00,,,0.00,,2013-11-19 17:12:00,
2013-11-19 12:22:00,31.0,19.0,29.93,NNE,24,9.0,17.0,60,0.00,,,0.00,,2013-11-19 17:22:00,
2013-11-19 12:43:00,31.0,19.0,29.94,NW,313,7.0,16.0,60,0.00,,,0.00,,2013-11-19 17:43:00,
2013-11-19 12:52:00,31.0,18.0,29.94,NW,310,9.0,21.0,59,0.00,,,0.00,,2013-11-19 17:52:00,
2013-11-19 13:12:00,31.0,19.0,29.96,WNW,288,8.0,17.0,60,0.00,,,0.00,,2013-11-19 18:12:00,
2013-11-19 13:23:00,31.0,19.0,29.95,NE,39,7.0,21.0,60,0.00,,,0.00,,2013-11-19 18:23:00,
2013-11-19 13:42:00,31.0,18.0,29.96,NNE,15,7.0,21.0,59,0.00,,,0.00,,2013-11-19 18:42:00,
2013-11-19 13:52:00,32.0,19.0,29.96,NNE,32,5.0,12.0,59,0.00,,,0.00,,2013-11-19 18:52:00,
2013-11-19 14:11:00,32.0,19.0,29.96,NNW,345,10.0,22.0,59,0.00,,,0.00,,2013-11-19 19:11:00,
2013-11-19 14:21:00,32.0,19.0,29.96,NNE,32,5.0,11.0,58,0.00,,,0.00,,2013-11-19 19:21:00,
2013-11-19 14:42:00,33.0,19.0,29.97,NNW,327,6.0,18.0,57,0.00,,,0.00,,2013-11-19 19:42:00,
2013-11-19 14:52:00,32.0,19.0,30.02,WSW,244,7.0,14.0,57,0.00,,,0.00,,2013-11-19 19:52:00,
2013-11-19 15:12:00,32.0,19.0,30.03,NNW,334,6.0,15.0,59,0.00,,,0.00,,2013-11-19 20:12:00,
2013-11-19 15:22:00,32.0,19.0,29.99,NNW,337,4.0,11.0,59,0.00,,,0.00,,2013-11-19 20:22:00,
2013-11-19 15:42:00,32.0,20.0,30.01,NNW,339,7.0,13.0,60,0.00,,,0.00,,2013-11-19 20:42:00,
2013-11-19 15:52:00,32.0,20.0,30.02,NNE,28,6.0,14.0,60,0.00,,,0.00,,2013-11-19 20:52:00,
2013-11-19 16:11:00,31.0,19.0,30.03,NNW,346,8.0,15.0,60,0.00,,,0.00,,2013-11-19 21:11:00,
2013-11-19 16:22:00,31.0,19.0,30.04,NW,310,3.0,11.0,61,0.00,,,0.00,,2013-11-19 21:22:00,
2013-11-19 16:43:00,30.0,19.0,30.06,NNE,33,5.0,13.0,62,0.00,,,0.00,,2013-11-19 21:43:00,
2013-11-19 16:54:00,30.0,19.0,30.06,NW,315,3.0,14.0,63,0.00,,,0.00,,2013-11-19 21:54:00,
2013-11-19 17:13:00,30.0,19.0,30.07,North,7,7.0,17.0,63,0.00,,,0.00,,2013-11-19 22:13:00,
2013-11-19 17:23:00,30.0,19.0,30.08,NE,47,4.0,10.0,64,0.00,,,0.00,,2013-11-19 22:23:00,
2013-11-19 17:43:00,29.0,18.0,30.09,West,273,4.0,12.0,64,0.00,,,0.00,,2013-11-19 22:43:00,
2013-11-19 17:53:00,29.0,18.0,30.09,NW,319,4.0,10.0,64,0.00,,,0.00,,2013-11-19 22:53:00,
2013-11-19 18:12:00,28.0,18.0,30.16,North,4,3.0,9.0,65,0.00,,,0.00,,2013-11-19 23:12:00,
2013-11-19 18:22:00,29.0,19.0,30.11,NW,321,3.0,7.0,65,0.00,,,0.00,,2013-11-19 23:22:00,
2013-11-19 18:43:00,28.0,18.0,30.12,North,11,3.0,8.0,66,0.00,,,0.00,,2013-11-19 23:43:00,
2013-11-19 18:52:00,28.0,18.0,30.13,NNW,337,3.0,9.0,67,0.00,,,0.00,,2013-11-19 23:52:00,
2013-11-19 19:11:00,28.0,18.0,30.14,NW,322,3.0,8.0,67,0.00,,,0.00,,2013-11-20 00:11:00,
2013-11-19 19:22:00,28.0,18.0,30.15,WNW,296,8.0,13.0,66,0.00,,,0.00,,2013-11-20 00:22:00,
2013-11-19 19:42:00,28.0,18.0,30.15,NNE,25,6.0,14.0,65,0.00,,,0.00,,2013-11-20 00:42:00,
2013-11-19 19:52:00,28.0,17.0,30.16,ENE,71,7.0,11.0,64,0.00,,,0.00,,2013-11-20 00:52:00,
2013-11-19 20:11:00,28.0,18.0,30.17,West,280,5.0,14.0,65,0.00,,,0.00,,2013-11-20 01:11:00,
2013-11-19 20:22:00,28.0,17.0,30.18,NE,37,6.0,13.0,64,0.00,,,0.00,,2013-11-20 01:22:00,
2013-11-19 20:42:00,28.0,17.0,30.19,North,350,8.0,14.0,64,0.00,,,0.00,,2013-11-20 01:42:00,
2013-11-19 20:52:00,27.0,16.0,30.19,WNW,291,8.0,19.0,63,0.00,,,0.00,,2013-11-20 01:52:00,
2013-11-19 21:11:00,27.0,16.0,30.19,WNW,294,7.0,19.0,63,0.00,,,0.00,,2013-11-20 02:11:00,
2013-11-19 21:22:00,27.0,16.0,30.26,West,278,8.0,20.0,63,0.00,,,0.00,,2013-11-20 02:22:00,
2013-11-19 21:42:00,27.0,16.0,30.20,NE,35,7.0,15.0,64,0.00,,,0.00,,2013-11-20 02:42:00,
2013-11-19 21:53:00,27.0,17.0,30.20,NNW,339,9.0,16.0,65,0.00,,,0.00,,2013-11-20 02:53:00,
2013-11-19 22:11:00,27.0,17.0,30.21,NNE,22,7.0,13.0,66,0.00,,,0.00,,2013-11-20 03:11:00,
2013-11-19 22:22:00,27.0,17.0,30.21,NNE,17,6.0,14.0,66,0.00,,,0.00,,2013-11-20 03:22:00,
2013-11-19 22:44:00,27.0,17.0,30.22,NW,326,10.0,19.0,66,0.00,,,0.00,,2013-11-20 03:44:00,
2013-11-19 22:54:00,27.0,16.0,30.22,West,277,8.0,18.0,64,0.00,,,0.00,,2013-11-20 03:54:00,
2013-11-19 23:13:00,26.0,16.0,30.23,NNW,334,8.0,16.0,65,0.00,,,0.00,,2013-11-20 04:13:00,
2013-11-19 23:23:00,26.0,16.0,30.23,NW,313,8.0,24.0,65,0.00,,,0.00,,2013-11-20 04:23:00,
2013-11-19 23:43:00,26.0,16.0,30.24,NNW,336,7.0,17.0,65,0.00,,,0.00,,2013-11-20 04:43:00,
2013-11-19 23:52:00,26.0,16.0,30.25,WSW,245,6.0,13.0,65,0.00,,,0.00,,2013-11-20 04:52:00,